Погода в Черняховске

Погода в Черняховске : погода сейчас, прогноз погоды и архив. Всё, что Вы хотите узнать о погоде в Черняховске!

Хотите узнать прогноз погоды в Черняховске? Тогда Вам сюда: Погода в Черняховске

Поиск расширенной информации на нашем сайте:

Другие новости

Новости СМИ2

Главная страница сайта

Новости сайта

02.10.2013

Напоминаем, что на нашем новом сайте вы можете получить высокодетализированные прогнозы погоды по пунктам России, СНГ и мира (включающие важные для авиации метеовеличины, такие как направление и скорость ветра, видимость, явления погоды, количество и форма облачности, нижняя и верхняя граница облачности), а также ознакомиться с разнообразными материалами по авиационной метеорологии и подборкой полезных ссылок на эту тему.

Сайт Метеоцентр.Азия посвящён разработке технологий оптимизации авиаметеорологического обслуживания, включая проектирование и перспективное создание нескольких автоматизированных авиаметеорологических систем:
- система выпуска высокодетальных прогностических карт явлений погоды для нижнего воздушного пространства по России и ближнему зарубежью;
- система верификации прогнозов TAF (выпускаемых синоптиками официальных АМСГ РФ и ближнего зарубежья) и AUTOTAF (выпускаемых сайтом Метеоцентр.Азия) - выявление ошибок, онлайн-сопоставление с фактической погодой METAR, автоматическое внесение коррективов в прогнозы при резком отклонении фактической погоды от прогноза, подсчёт оправдываемости прогнозов по элементам и в целом;
- система обработки, анализа и отображения авиаметеорологической информации для применения провайдерами метеорологической информации.

Рекомендуем: Самая подробная информация xiaomi redmi 3 купить на нашем сайте.

Погода в Черняховске - сегодня

Время (UTC), дата Ветер
(°,м/с) 
Видим.   Явления Облачность Т
(°С)
Тd
(°С)
f(%) Тe
(°С)
Pmin
(гПа)
dP
(гПа)
Po
(мм)
O2
(г/м3)
Тmin Tmax R s Состояние
почвы
09 26.04.17 250 (З) 3-6{07}  20000 м    9/9 600 м 
[Cu Sc]
+6.8 +1.3 68 +6  1010.1  1.6  755  296           
12 26.04.17 270 (З) 4-6{08}  20000 м    10/10 600 м 
[Cu Sc]
+8.2 +0.2 57 +7  1011.5  1.4  756  296           
15 26.04.17 310 (СЗ) 2-5{07}  20000 м    9/9 600 м 
[Cu Sc]
+8.7 -0.4 53 +9  1011.8  0.3  756  295           
18 26.04.17 010 (С) 1-4{05}  20000 м    9/5 600 м верхняя 
[Cu Sc|Ci fib]
+6.9 +1.1 67 +8  1012.6  0.7  757  297    +9.3       
21 26.04.17 тихо () -0{04}  10 км    8/6 600 м верхняя 
[Sc|Ci fib]
+3.1 +1 86 +3  1013.1  0.5  757  301           
00 27.04.17 040 (СВ) 1-1{03}  4000 м  дымка  3/3 600 м 
[Sc]
+0.8 -0.1 94 +1  1012.9  -0.2  757  304           
03 27.04.17 180 (Ю) 1-1{02}  10 км    8/4 300 м верхняя 
[Sc|Cs]
+0.2 -0.2 97 +1  1012.5  -0.4  756  305  -0.4         
06 27.04.17 220 (ЮЗ) 2-3{03}  20000 м    9/0 средняя, верхняя 
[Ac As|Cs]
+3.2 +0.7 84 +3  1013.4  0.9  757  301  -0.4        влажная 
09 27.04.17 270 (З) 1-2{04}  20000 м    9/1 600 м верхняя 
[Cu med, cong|Cs]
+9.3 +0.2 53 +10  1014.4  758  295           
12 27.04.17 250 (З) 1-3{04}  20000 м    9/5 600 м верхняя 
[Cu med, cong|Cs]
+11.9 -0.7 42 +13  1014.2  -0.1  758  293           
15 27.04.17 тихо () -0{04}  20000 м    9/8 600 м средняя, верхняя 
[Cu med, cong|Ac cast|Ci fib]
+10.8 -1.8 41 +11  1014.6  0.4  758  294           
18 27.04.17 340 (С) 2-4{04}  20000 м    9/3 600 м верхняя 
[Sc|Cs]
+8.2 +0.9 60 +8  1015.9  1.2  759  297    +12.6       
21 27.04.17 040 (СВ) 1-2{05}  10 км    8/0 верхняя 
[Ci sp]
+5.7 +0.4 69 +7  1017.1  1.1  760  300           
00 28.04.17 120 (ЮВ) 1-2{03}  10 км    3/0 верхняя 
[Ci sp]
+4.6 +0.1 73 +5  1017.3  0.2  760  301           
03 28.04.17 100 (В) 1-3{04}  20000 м    9/0 средняя 
[Ac As]
+4.3 +0.3 75 +5  1017  -0.3  760  301  +3.9         
06 28.04.17 090 (В) 1-3{04}  20000 м    10/0 средняя 
[As trans]
+6.4 +1.9 73 +7  1016.5  -0.5  759  299  +3.5        влажная 
09 28.04.17 090 (В) 2-4{04}  20000 м    10/10 600 м 
[Sc]
+8.1 +2.9 70 +8  1016.3  -0.2  759  297           
12 28.04.17 070 (В) 4-7{09}  10 км  слаб. дождь  10/10 300 м 
[Frnb|Ns]
+5.8 +3.9 88 +4  1015.3  -1  759  299           
15 28.04.17 050 (СВ) 3-5{09}  4000 м  слаб. ливневой дождь  10/10 300 м кучево-дожд. 
[Cb cap]
+5.5 +4 90 +4  1014  -1.3  758  299         
18 28.04.17 040 (СВ) 3-7{09}  4000 м  слаб. ливневой дождь  10/10 300 м кучево-дожд. 
[Cb cap]
+5 +3.7 91 +4  1012.5  -1.5  756  299    +8.1     
21 28.04.17 040 (СВ) 3-6{08}  10 км  слаб. морось{ливн. осадки}  10/10 300 м 
[St]
+4.4 +3.5 94 +3  1011.2  -1.3  755  299           
00 29.04.17 050 (СВ) 2-5{08}  10 км  {ливн. осадки, морось}  10/10 300 м 
[Sc]
+4.1 +3.5 96 +4  1008.8  -2.4  754  299           
03 29.04.17 010 (С) 1-2{05}  10 км  слаб. ливневой дождь  10/10 300 м кучево-дожд. 
[Cb cap]
+4 +3.4 96 +5  1007.5  -1.3  753  298  +4       
06 29.04.17 330 (СЗ) 1-1{04}  10 км  {ливн. осадки}  10/10 300 м кучево-дожд. 
[Cb cap]
+3.5 +2.6 94 +4  1007.3  -0.2  753  299  +3.2      мокрая 
09 29.04.17 260 (З) 3-5{06}  20000 м  в посл. час ливневой дождь  10/10 300 м 
[Cu Sc]
+5.1 +3.8 91 +4  1008.4  1.1  753  297           
Время (UTC), дата Ветер
(°,м/с) 
Видим.   Явления Облачность Т
(°С)
Тd
(°С)
f(%) Тe
(°С)
Pmin
(гПа)
dP
(гПа)
Po
(мм)
O2
(г/м3)
Тmin Tmax R s Состояние
почвы

Для получения пояснительной информации подведите курсор к названию столбца.

ПОГОДА в Черняховске - архив

Всё, что Вы хотите узнать о погоде в Черняховске - удобно и подробно!

Выберите нужную дату (начиная с 1 января 2015* года) и нажмите кнопку "Найти".
Будут отображены архивные сводки погоды по пункту Черняховск, начиная с указанной даты.


Отображать данные в формате CSV (для использования в таблицах Excel)


Внимание! Наш архив погоды предназначен исключительно для личного некоммерческого использования в познавательных целях. Если Вам необходимы официальные справки о состоянии погоды (для производственных, юридических, коммерческих и т.п. целей), обращайтесь в органы Росгидромета.

*Примечание: данная дата относится к архиву по метеостанциям СССР (Россия, СНГ, Балтия).
Архив по метеостанциям Зарубежной Европы и Азии (кроме Китая) хранится 10 дней, по другим регионам земного шара (Китай, Африка, Америка, Австралия, Океания) - 1 день.

Черняховск - район местоположения метеостанции


Название, широта, долгота, высота метеостанции:
Черняховск 54.8°ш. 21.7°д. 25 м над ур. моря [Российская Федерация]

Дополнительная информация

В oтличие oт бoльшинства пoгoдных сайтoв мы публикуем пoдрoбную метеoинфoрмацию в детальнoм прoфессиoнальнoм фoрмате.

Характеристики температуры и влажнoсти вoздуха измеряются на высoте 2 м в тени вдали oт зданий и деревьев.
Скoрoсть ветра измеряется на высoте 10 м (на урoвне рoста челoвека скoрoсть ветра ниже в 1.5-2 раза). Если метеoстанция нахoдится в гoрoде или в лесу, тo скoрoсть ветра занижена на 2-4 м/с пo сравнению с oткрытым местoм. Скoрoсть ветра над акватoриями крупных рек и oзёр, а также на вершинах хoлмoв на 2-5 м/с выше, чем в oбычных услoвиях.
Атмoсфернoе давление в разных тoчках местнoсти мoжет значительнo oтличаться oт давления на метеoстанции, в зависимoсти oт услoвий рельефа (при пoдъёме на 10 м давление пoнижается примернo на 1 мм рт.ст.).